Regional Weather Roundup
Issued by NWS

Home | Current Version | Previous Version | Text Only | Print | Product List | Glossary On
Versions: 1 2 3 4 5 6 7 8 9 10 11 12 13 14 15 16 17 18 19 20 21 22 23 24 25 26 27 28 29 30 31 32 33 34 35 36 37 38 39 40 41 42 43 44 45 46 47 48 49 50
000
ASUS43 KTOP 201559
RWRKS

WEATHER ROUNDUP FOR KANSAS
NATIONAL WEATHER SERVICE GOODLAND KS
1000 AM CST SAT DEC 20 2014

NOTE:  "FAIR" INDICATES FEW OR NO CLOUDS BELOW 12,000 FEET WITH NO
SIGNIFICANT WEATHER AND/OR OBSTRUCTIONS TO VISIBILITY.

KSZ001>006-013>018-027>032-041>047-201700-
NORTHWEST KANSAS

CITY           SKY/WX    TMP DP  RH WIND       PRES   REMARKS
GOODLAND       MOSUNNY   38  29  70 W7        30.03R
HAYS           SUNNY     36  27  69 W6        30.08S
HILL CITY      SUNNY     33  28  81 SW3       30.07S
RUSSELL        SUNNY     33  32  96 SW10      30.08R WCI  25
$$

KSZ061>065-074>080-084>089-201700-
SOUTHWEST KANSAS

CITY           SKY/WX    TMP DP  RH WIND       PRES   REMARKS
DODGE CITY     MOSUNNY   33  31  92 SW12      30.09R FOG     WCI  24
ELKHART          N/A    N/A N/A N/A MISG        N/A
GARDEN CITY    SUNNY     30  29  96 SW12      30.06F WCI  20
GREAT BEND     SUNNY     36  30  80 SW6       30.11S
LIBERAL        CLOUDY    30  27  86 SW10      30.11S VSB 1/4 WCI  21
$$

KSZ066>073-081>083-090>101-201700-
SOUTHEAST KANSAS

CITY           SKY/WX    TMP DP  RH WIND       PRES   REMARKS
CHANUTE        PTSUNNY   40  35  83 S9        30.21F
COFFEYVILLE    CLOUDY    40  35  83 S6        30.24S
HUTCHINSON     SUNNY     40  37  89 S9        30.13F FOG
MEDICINE LODGE   N/A     37  37 100 S9        30.15R
NEWTON         SUNNY     39  34  81 S14       30.15S WCI  31
PARSONS        CLOUDY    40  35  83 S8        30.24S
WICHITA INTL   PTSUNNY   41  36  82 S12       30.16R
WICHITA JABRA  MOSUNNY   40  36  86 S9        30.16R
WICHITA MCCONL PTSUNNY   40  36  85 S14       30.16S WCI  33
WINFIELD       MOSUNNY   44  36  73 S13       30.20R
$$

KSZ007>012-019>026-033>040-048>060-102>105-201700-
NORTHEAST KANSAS

CITY           SKY/WX    TMP DP  RH WIND       PRES   REMARKS
CONCORDIA      SUNNY     32  31  96 SW7       30.10R FOG
EMPORIA        SUNNY     36  33  89 S9        30.16S
LAWRENCE       SUNNY     38  33  82 S14       30.18S WCI  30
MANHATTAN      SUNNY     38  35  89 SW8       30.13S FOG
OLATHE IND     SUNNY     36  33  89 S16       30.18S WCI  26
OLATHE EXE     MOSUNNY   36  33  89 S12       30.18S WCI  28
SALINA         MOSUNNY   36  34  92 S6        30.13S FOG
TOPEKA BILLARD SUNNY     39  33  79 SW12      30.16S WCI  32
TOPEKA FORBES  SUNNY     38  32  79 S18       30.15S WCI  28
$$



USA.gov is the U.S. government's official web portal to all federal, state and local government web resources and services.